Back to catalog

MAGION 3

AliveSciencePO
NORAD 21835·PAYLOAD·🇨🇿 Czechia

Launched Dec 18, 1991 from Plesetsk Cosmodrome

Loading…

Next Passes (next 24 hours)

TLE

FreshSource: Space-Track

Epoch: Sep 14, 2026, 15:08 UTC

1 21835U 91086E   26257.63055733  .00000794  00000-0  14564-3 0  9990
2 21835  82.5339 127.8130 1448056 265.1583  78.3229 12.21649240524497

Track MAGION 3 in real time with AllMySat

Download on the App Store